DELTA 1 DEB, 7013

Orbit data source: Space-Track

DELTA 1 DEB, 7013 is space debris in SSO originally from a launch on Tue, 06 Nov 1973 UTC launched from the Air Force Western Test Range (AFWTR). Debris objects in space refer to the collection of defunct objects orbiting the Earth. Examples of debris include non-operational satellites, rocket bodies, and fragments generated from explosions, collisions, or faulty payload assembly.

Loading next visibility...
Identifier
7013, 1973-086D
Orbit
SSO
Country
Flag of USUS
Related business
Manufacturer
Unknown
Mission
Spacecraft
Bus & Motor
Unknown
Mass
Unknown
Launch date (UTC)
1973-11-06 (53 years ago)
Launch vehicle
Unknown
Launch site
Air Force Western Test Range (AFWTR)
Object type
Payload
Rocket body
Debris
Shape & HBR
Unknown shape, 0.8 m
Radar Cross Section
Large (>1 m²)

Expand to show TLE details & history
Last TLE update: 13 hours ago

TLE from 13 hours ago
0 DELTA 1 DEB
1 07013U 73086D   26263.59466873 -.00000007  00000-0  25190-3 0  9990
2 07013 102.0162 276.1951 0068925 283.0332 197.1797 12.51888665414333
Epoch: 2026-09-20T14:16Z
TLE epoch observation values (Epoch: 2026-09-20T14:16:19.378Z)
Latitude
58.00179°
Longitude
-97.55642°
Altitude
1,517.804 km
Speed
7.088 km/s
True Right ascension
07h 44m 02s
True Declination
57° 51' 43"
Sunlit
Object was in daylight at epoch
Visualization orbit readout
Latitude
Unknown
Longitude
Unknown
Altitude
Unknown
Speed
Unknown
Apparent Right ascension
Unknown
Apparent Declination
Unknown
Sunlit
N/A
Visualization observer readout
Local Sidereal Time
19:46:09
Azimuth
Unknown
Elevation
Unknown
Doppler factor
Unknown
Orbital elements
Apogee altitude
1,508.149 km
Perigee altitude
1,400.181 km
Semi-major axis
7,832.302 km
Eccentricity
0.00689
Inclination
102.0162°
RAAN
276.1951°
Arg. of periapsis
283.0332°
True anomaly
196.94832°
Mean anomaly
197.1797°
Eccentric anomaly
197.06382°
Mean motion
3.13119 °/min
Orbital period
114.97 mins
BSTAR
0.0002519
Loading maneuver chart data...
Computing Atmospheric mass density...
Loading historical data...
Loading historical data...
Loading historical data...
Loading historical data...
Loading historical data...
Loading historical data...
Loading historical data...

Documentation

Showing up to 5 results
|